CPA1862 VHHH-ZUCK

Flight info

Callsign CPA1862
Flight time 1h 49m
Altitude 32100
Route BEKOL A461 SHL W22 TEPID W24 OSNOV G586 QP B330 SJG G586 LAGEX W182 UGUGU V50 VILUS DCT SEGDA SEGDD2
Aircraft B77W/H-SDE1E2E3FGHIJ2J3J4J5M1RWXY/LB1D1

Departure

Time 2026-04-21 02:18
Airport Hong Kong International Airport (VHHH)

Arrival

Time 2026-04-21 04:08
Airport Chongqing Jiangbei International Airport (ZUCK)
Time Latitude Longitude Altitude Speed Heading
2026-04-21 01:45 22.31088 113.91834 42 ft 0 kts 251°
2026-04-21 02:06 22.31093 113.91847 42 ft 2 kts 251°
2026-04-21 02:07 22.31097 113.91863 42 ft 2 kts 251°
2026-04-21 02:07 22.31102 113.91878 42 ft 2 kts 251°
2026-04-21 02:07 22.31105 113.91894 42 ft 2 kts 274°
2026-04-21 02:07 22.31102 113.91909 42 ft 2 kts 295°
2026-04-21 02:08 22.31094 113.91923 42 ft 2 kts 315°
2026-04-21 02:08 22.31082 113.91932 42 ft 2 kts 335°
2026-04-21 02:08 22.31076 113.91935 42 ft 1 kts 342°
2026-04-21 02:08 22.31075 113.91936 42 ft 0 kts 342°
2026-04-21 02:13 22.31084 113.91932 42 ft 5 kts 342°
2026-04-21 02:13 22.31174 113.91897 42 ft 22 kts 339°
2026-04-21 02:14 22.31348 113.91831 42 ft 26 kts 340°
2026-04-21 02:14 22.31477 113.91853 42 ft 18 kts 71°
2026-04-21 02:14 22.31520 113.91985 42 ft 18 kts 71°
2026-04-21 02:14 22.31562 113.92114 42 ft 18 kts 71°
2026-04-21 02:15 22.31602 113.92238 42 ft 17 kts 70°
2026-04-21 02:15 22.31642 113.92360 42 ft 16 kts 72°
2026-04-21 02:15 22.31685 113.92503 42 ft 23 kts 71°
2026-04-21 02:15 22.31740 113.92668 42 ft 22 kts 70°
2026-04-21 02:16 22.31789 113.92820 42 ft 21 kts 72°
2026-04-21 02:16 22.31840 113.92979 42 ft 21 kts 72°
2026-04-21 02:16 22.31912 113.93112 42 ft 20 kts 27°
2026-04-21 02:16 22.32017 113.93198 42 ft 17 kts 58°
2026-04-21 02:17 22.32107 113.93255 42 ft 15 kts 349°
2026-04-21 02:17 22.32181 113.93196 42 ft 12 kts 276°
2026-04-21 02:17 22.32175 113.93159 42 ft 0 kts 252°
2026-04-21 02:17 22.32157 113.93098 42 ft 34 kts 251°
2026-04-21 02:18 22.31998 113.92612 42 ft 102 kts 251°
2026-04-21 02:18 22.31693 113.91660 42 ft 163 kts 251°
2026-04-21 02:18 22.31340 113.90340 211 ft 193 kts 259°
2026-04-21 02:18 22.30994 113.88912 720 ft 204 kts 242°
2026-04-21 02:19 22.30409 113.87550 1592 ft 203 kts 245°
2026-04-21 02:19 22.29889 113.86074 2044 ft 220 kts 248°
2026-04-21 02:19 22.29362 113.84443 2508 ft 238 kts 248°
2026-04-21 02:19 22.28805 113.82711 3070 ft 253 kts 248°
2026-04-21 02:20 22.28215 113.80879 3767 ft 263 kts 248°
2026-04-21 02:20 22.27619 113.79027 4638 ft 265 kts 248°
2026-04-21 02:20 22.27014 113.77152 5484 ft 269 kts 248°
2026-04-21 02:20 22.26393 113.75245 6292 ft 272 kts 246°
2026-04-21 02:21 22.25399 113.73539 7062 ft 271 kts 223°
2026-04-21 02:21 22.23911 113.72304 7845 ft 273 kts 213°
2026-04-21 02:21 22.22199 113.71440 8596 ft 277 kts 194°
2026-04-21 02:21 22.20262 113.71339 8900 ft 286 kts 172°
2026-04-21 02:22 22.18352 113.72066 8942 ft 288 kts 156°
2026-04-21 02:22 22.16536 113.73007 8939 ft 288 kts 158°
2026-04-21 02:22 22.14725 113.73894 8938 ft 287 kts 159°
2026-04-21 02:22 22.12903 113.74768 8928 ft 288 kts 153°
2026-04-21 02:23 22.11232 113.76002 8945 ft 290 kts 144°
2026-04-21 02:23 22.09650 113.77393 8941 ft 291 kts 142°
2026-04-21 02:23 22.08099 113.78781 8940 ft 291 kts 141°
2026-04-21 02:23 22.06818 113.80471 8921 ft 294 kts 116°
2026-04-21 02:24 22.06144 113.82612 9307 ft 308 kts 105°
2026-04-21 02:24 22.05673 113.84826 10240 ft 305 kts 104°
2026-04-21 02:24 22.05220 113.87101 10709 ft 321 kts 104°
2026-04-21 02:24 22.04763 113.89532 11129 ft 338 kts 99°
2026-04-21 02:25 22.04600 113.92110 11551 ft 357 kts 89°
2026-04-21 02:25 22.04877 113.94821 11954 ft 374 kts 78°
2026-04-21 02:25 22.05657 113.97564 12357 ft 390 kts 67°
2026-04-21 02:25 22.06814 114.00294 12810 ft 405 kts 64°
2026-04-21 02:26 22.08030 114.03078 13336 ft 417 kts 64°
2026-04-21 02:26 22.09262 114.05922 14038 ft 423 kts 65°
2026-04-21 02:26 22.10614 114.08699 14858 ft 423 kts 56°
2026-04-21 02:26 22.12416 114.11234 15595 ft 426 kts 46°
2026-04-21 02:27 22.14586 114.13360 16242 ft 429 kts 35°
2026-04-21 02:27 22.17064 114.15220 16928 ft 432 kts 32°
2026-04-21 02:27 22.19566 114.17027 17637 ft 435 kts 32°
2026-04-21 02:27 22.22113 114.18790 18282 ft 438 kts 27°
2026-04-21 02:28 22.24865 114.20139 18896 ft 440 kts 17°
2026-04-21 02:28 22.27821 114.20976 19476 ft 441 kts
2026-04-21 02:28 22.30909 114.21261 20092 ft 442 kts 359°
2026-04-21 02:28 22.33991 114.21259 20697 ft 445 kts 357°
2026-04-21 02:29 22.37091 114.21233 21277 ft 448 kts 357°
2026-04-21 02:29 22.40241 114.21124 21812 ft 451 kts 352°
2026-04-21 02:29 22.43330 114.20525 22322 ft 453 kts 342°
2026-04-21 02:29 22.46291 114.19386 22867 ft 453 kts 333°
2026-04-21 02:30 22.49040 114.17736 23461 ft 452 kts 324°
2026-04-21 02:30 22.51551 114.15711 24080 ft 452 kts 320°
2026-04-21 02:30 22.54106 114.13679 24699 ft 455 kts 326°
2026-04-21 02:30 22.56887 114.12045 25314 ft 457 kts 331°
2026-04-21 02:31 22.59746 114.10560 25900 ft 459 kts 332°
2026-04-21 02:31 22.62637 114.09072 26451 ft 461 kts 332°
2026-04-21 02:31 22.65529 114.07585 26976 ft 464 kts 332°
2026-04-21 02:31 22.68489 114.06062 27533 ft 466 kts 332°
2026-04-21 02:32 22.71394 114.04568 28123 ft 466 kts 332°
2026-04-21 02:32 22.74344 114.03050 28673 ft 468 kts 331°
2026-04-21 02:32 22.77252 114.01552 29213 ft 469 kts 331°
2026-04-21 02:32 22.80207 114.00030 29780 ft 470 kts 331°
2026-04-21 02:33 22.83158 113.98509 30396 ft 470 kts 331°
2026-04-21 02:33 22.86127 113.96978 31027 ft 470 kts 331°
2026-04-21 02:33 22.89084 113.95454 31713 ft 467 kts 330°
2026-04-21 02:33 22.92029 113.93928 32025 ft 470 kts 330°
2026-04-21 02:34 22.94973 113.92396 32043 ft 470 kts 330°
2026-04-21 02:34 23.00898 113.89311 32030 ft 466 kts 330°
2026-04-21 02:35 23.06758 113.86226 32020 ft 464 kts 327°
2026-04-21 02:35 23.11930 113.82107 32033 ft 459 kts 314°
2026-04-21 02:36 23.16546 113.77300 32032 ft 459 kts 313°
2026-04-21 02:36 23.21136 113.72495 32031 ft 458 kts 313°
2026-04-21 02:37 23.25686 113.67729 32030 ft 458 kts 313°
2026-04-21 02:37 23.30294 113.62898 32037 ft 458 kts 313°
2026-04-21 02:38 23.34886 113.58079 32034 ft 459 kts 313°
2026-04-21 02:38 23.39465 113.53271 32030 ft 460 kts 313°
2026-04-21 02:39 23.44063 113.48436 32030 ft 460 kts 313°
2026-04-21 02:39 23.48655 113.43604 32025 ft 458 kts 313°
2026-04-21 02:40 23.53240 113.38774 32024 ft 460 kts 313°
2026-04-21 02:40 23.57823 113.33871 32031 ft 459 kts 311°
2026-04-21 02:41 23.62367 113.28979 32032 ft 459 kts 311°
2026-04-21 02:41 23.66578 113.23803 32031 ft 455 kts 301°
2026-04-21 02:42 23.69502 113.17731 32038 ft 451 kts 292°
2026-04-21 02:42 23.72085 113.11531 32041 ft 450 kts 292°
2026-04-21 02:43 23.74682 113.05292 32046 ft 452 kts 292°
2026-04-21 02:43 23.77273 112.99060 32055 ft 451 kts 292°
2026-04-21 02:44 23.79847 112.92857 32057 ft 452 kts 292°
2026-04-21 02:44 23.82450 112.86578 32056 ft 452 kts 292°
2026-04-21 02:45 23.85024 112.80361 32059 ft 450 kts 292°
2026-04-21 02:45 23.87600 112.74128 32062 ft 453 kts 292°
2026-04-21 02:46 23.90177 112.67886 32059 ft 449 kts 292°
2026-04-21 02:46 23.92744 112.61659 32056 ft 452 kts 292°
2026-04-21 02:47 23.95310 112.55424 32054 ft 450 kts 292°
2026-04-21 02:47 23.97874 112.49191 32059 ft 449 kts 292°
2026-04-21 02:48 24.00419 112.42989 32048 ft 450 kts 292°
2026-04-21 02:48 24.02977 112.36750 32052 ft 449 kts 292°
2026-04-21 02:49 24.05537 112.30498 32060 ft 449 kts 292°
2026-04-21 02:49 24.08065 112.24315 32068 ft 450 kts 292°
2026-04-21 02:50 24.10630 112.18032 32065 ft 450 kts 292°
2026-04-21 02:50 24.13166 112.11810 32063 ft 451 kts 292°
2026-04-21 02:51 24.15724 112.05529 32069 ft 449 kts 292°
2026-04-21 02:51 24.18261 111.99287 32079 ft 451 kts 292°
2026-04-21 02:52 24.20811 111.93005 32076 ft 452 kts 292°
2026-04-21 02:52 24.23352 111.86739 32067 ft 451 kts 292°
2026-04-21 02:53 24.25905 111.80434 32068 ft 451 kts 292°
2026-04-21 02:53 24.28418 111.74218 32061 ft 447 kts 292°
2026-04-21 02:54 24.30950 111.67944 32064 ft 452 kts 292°
2026-04-21 02:54 24.33480 111.61670 32069 ft 449 kts 292°
2026-04-21 02:55 24.36002 111.55405 32063 ft 449 kts 292°
2026-04-21 02:55 24.38515 111.49153 32059 ft 450 kts 292°
2026-04-21 02:56 24.41029 111.42890 32053 ft 451 kts 292°
2026-04-21 02:56 24.44814 111.33444 32053 ft 450 kts 292°
2026-04-21 02:57 24.47322 111.27175 32055 ft 449 kts 292°
2026-04-21 02:57 24.49817 111.20928 32055 ft 448 kts 292°
2026-04-21 02:58 24.52330 111.14628 32055 ft 451 kts 292°
2026-04-21 02:58 24.54823 111.08369 32053 ft 448 kts 292°
2026-04-21 02:59 24.57322 111.02086 32054 ft 449 kts 291°
2026-04-21 02:59 24.59816 110.95806 32055 ft 449 kts 292°
2026-04-21 03:00 24.62305 110.89529 32049 ft 450 kts 292°
2026-04-21 03:00 24.64784 110.83269 32043 ft 447 kts 292°
2026-04-21 03:01 24.67768 110.77280 32038 ft 453 kts 304°
2026-04-21 03:01 24.72084 110.72194 32034 ft 455 kts 313°
2026-04-21 03:02 24.76700 110.67396 32026 ft 456 kts 313°
2026-04-21 03:02 24.81287 110.62598 32029 ft 455 kts 313°
2026-04-21 03:03 24.85843 110.57812 32038 ft 454 kts 313°
2026-04-21 03:03 24.90380 110.53033 32038 ft 454 kts 313°
2026-04-21 03:04 24.94946 110.48213 32039 ft 452 kts 313°
2026-04-21 03:04 24.99498 110.43401 32037 ft 452 kts 312°
2026-04-21 03:05 25.04013 110.38627 32035 ft 453 kts 313°
2026-04-21 03:05 25.08578 110.33808 32040 ft 453 kts 312°
2026-04-21 03:06 25.13109 110.29018 32041 ft 452 kts 312°
2026-04-21 03:06 25.17660 110.24200 32042 ft 452 kts 313°
2026-04-21 03:07 25.22185 110.19418 32040 ft 453 kts 313°
2026-04-21 03:07 25.26771 110.14623 32040 ft 452 kts 313°
2026-04-21 03:08 25.31339 110.09840 32038 ft 453 kts 313°
2026-04-21 03:08 25.35917 110.05039 32042 ft 453 kts 313°
2026-04-21 03:09 25.40480 110.00249 32041 ft 453 kts 313°
2026-04-21 03:09 25.45063 109.95430 32048 ft 455 kts 313°
2026-04-21 03:10 25.49611 109.90645 32043 ft 451 kts 313°
2026-04-21 03:10 25.54139 109.85874 32043 ft 450 kts 313°
2026-04-21 03:11 25.58671 109.81093 32046 ft 452 kts 313°
2026-04-21 03:11 25.63215 109.76296 32037 ft 451 kts 313°
2026-04-21 03:12 25.67759 109.71492 32029 ft 452 kts 313°
2026-04-21 03:12 25.72320 109.66665 32025 ft 454 kts 313°
2026-04-21 03:13 25.76866 109.61848 32015 ft 451 kts 313°
2026-04-21 03:13 25.81645 109.57291 32022 ft 455 kts 319°
2026-04-21 03:14 25.86597 109.52976 32022 ft 454 kts 319°
2026-04-21 03:14 25.91548 109.48622 32026 ft 454 kts 318°
2026-04-21 03:15 25.96490 109.44247 32026 ft 454 kts 318°
2026-04-21 03:15 26.01440 109.39850 32031 ft 454 kts 318°
2026-04-21 03:16 26.06336 109.35489 32032 ft 453 kts 318°
2026-04-21 03:16 26.11267 109.31090 32045 ft 453 kts 317°
2026-04-21 03:17 26.16201 109.26680 32052 ft 455 kts 317°
2026-04-21 03:17 26.21104 109.22295 32050 ft 452 kts 317°
2026-04-21 03:18 26.26013 109.17895 32042 ft 454 kts 317°
2026-04-21 03:18 26.30893 109.13519 32042 ft 452 kts 317°
2026-04-21 03:19 26.35838 109.09079 32033 ft 453 kts 317°
2026-04-21 03:19 26.40380 109.04335 32033 ft 448 kts 306°
2026-04-21 03:20 26.43641 108.98464 32034 ft 444 kts 292°
2026-04-21 03:20 26.45506 108.91946 32036 ft 441 kts 284°
2026-04-21 03:21 26.47070 108.85338 32030 ft 443 kts 284°
2026-04-21 03:21 26.48628 108.78719 32028 ft 442 kts 285°
2026-04-21 03:22 26.50185 108.72085 32026 ft 442 kts 285°
2026-04-21 03:22 26.51731 108.65474 32020 ft 439 kts 285°
2026-04-21 03:23 26.53269 108.58882 32022 ft 441 kts 284°
2026-04-21 03:23 26.54807 108.52276 32017 ft 440 kts 284°
2026-04-21 03:24 26.56540 108.45750 32015 ft 440 kts 292°
2026-04-21 03:24 26.59586 108.39845 32010 ft 443 kts 306°
2026-04-21 03:25 26.63971 108.34998 32011 ft 450 kts 319°
2026-04-21 03:25 26.69481 108.31545 32032 ft 458 kts 332°
2026-04-21 03:26 26.75373 108.28800 32034 ft 460 kts 332°
2026-04-21 03:26 26.81300 108.26020 32029 ft 459 kts 332°
2026-04-21 03:27 26.87187 108.23238 32025 ft 461 kts 332°
2026-04-21 03:27 26.93038 108.20461 32026 ft 459 kts 332°
2026-04-21 03:28 26.98968 108.17637 32029 ft 460 kts 332°
2026-04-21 03:28 27.04836 108.14838 32034 ft 460 kts 332°
2026-04-21 03:29 27.10739 108.12019 32031 ft 459 kts 331°
2026-04-21 03:29 27.16654 108.09187 32026 ft 462 kts 332°
2026-04-21 03:30 27.22569 108.06355 32036 ft 460 kts 332°
2026-04-21 03:30 27.28466 108.03526 32032 ft 461 kts 332°
2026-04-21 03:31 27.34367 108.00693 32024 ft 460 kts 331°
2026-04-21 03:31 27.40289 107.97844 32020 ft 464 kts 331°
2026-04-21 03:32 27.46209 107.94996 32025 ft 460 kts 332°
2026-04-21 03:32 27.52139 107.92137 32026 ft 463 kts 332°
2026-04-21 03:33 27.58004 107.89308 32026 ft 461 kts 331°
2026-04-21 03:33 27.63922 107.86449 32023 ft 463 kts 331°
2026-04-21 03:34 27.69852 107.83581 32024 ft 462 kts 331°
2026-04-21 03:34 27.75744 107.80729 32020 ft 462 kts 331°
2026-04-21 03:35 27.81620 107.77769 32026 ft 458 kts 326°
2026-04-21 03:35 27.86771 107.73646 32022 ft 453 kts 317°
2026-04-21 03:36 27.91626 107.69177 32022 ft 451 kts 316°
2026-04-21 03:36 27.96504 107.64676 32025 ft 452 kts 317°
2026-04-21 03:37 28.01376 107.60175 32026 ft 453 kts 316°
2026-04-21 03:37 28.06249 107.55666 32026 ft 452 kts 317°
2026-04-21 03:38 28.11092 107.51181 32035 ft 452 kts 316°
2026-04-21 03:38 28.15988 107.46640 32038 ft 454 kts 317°
2026-04-21 03:39 28.20864 107.42149 32044 ft 453 kts 317°
2026-04-21 03:39 28.25814 107.37716 32049 ft 453 kts 318°
2026-04-21 03:40 28.30755 107.33283 32054 ft 452 kts 317°
2026-04-21 03:40 28.35625 107.28818 32053 ft 449 kts 313°
2026-04-21 03:41 28.40135 107.23898 32048 ft 450 kts 312°
2026-04-21 03:41 28.44627 107.18953 32053 ft 449 kts 312°
2026-04-21 03:42 28.49104 107.14019 32060 ft 450 kts 312°
2026-04-21 03:42 28.53599 107.09061 32045 ft 449 kts 312°
2026-04-21 03:43 28.58078 107.04116 32054 ft 450 kts 312°
2026-04-21 03:43 28.62552 106.99169 32031 ft 448 kts 312°
2026-04-21 03:44 28.67235 106.94456 32036 ft 453 kts 321°
2026-04-21 03:44 28.72598 106.90620 32017 ft 458 kts 324°
2026-04-21 03:45 28.78054 106.86800 32010 ft 459 kts 324°
2026-04-21 03:45 28.83489 106.82982 32014 ft 459 kts 323°
2026-04-21 03:46 28.88916 106.79163 32000 ft 460 kts 324°
2026-04-21 03:46 28.94364 106.75322 32005 ft 460 kts 324°
2026-04-21 03:47 28.99831 106.71461 32006 ft 460 kts 323°
2026-04-21 03:47 29.02419 106.69368 31710 ft 449 kts 316°
2026-04-21 03:47 29.04684 106.66966 30885 ft 446 kts 309°
2026-04-21 03:48 29.06679 106.64278 30359 ft 439 kts 307°
2026-04-21 03:48 29.08612 106.61566 29960 ft 449 kts 306°
2026-04-21 03:48 29.10630 106.58735 29468 ft 460 kts 307°
2026-04-21 03:48 29.12668 106.55886 28947 ft 460 kts 307°
2026-04-21 03:49 29.14675 106.53084 28440 ft 457 kts 307°
2026-04-21 03:49 29.16681 106.50286 27927 ft 452 kts 307°
2026-04-21 03:49 29.18652 106.47536 27426 ft 447 kts 307°
2026-04-21 03:49 29.20620 106.44790 26922 ft 442 kts 307°
2026-04-21 03:50 29.22539 106.42110 26429 ft 439 kts 307°
2026-04-21 03:50 29.24486 106.39391 25929 ft 438 kts 307°
2026-04-21 03:50 29.26405 106.36710 25417 ft 438 kts 307°
2026-04-21 03:50 29.28426 106.34122 24904 ft 436 kts 314°
2026-04-21 03:51 29.30788 106.31943 24398 ft 435 kts 323°
2026-04-21 03:51 29.33413 106.30266 23889 ft 435 kts 333°
2026-04-21 03:51 29.36268 106.29112 23389 ft 435 kts 343°
2026-04-21 03:51 29.39221 106.28543 23026 ft 434 kts 353°
2026-04-21 03:52 29.42252 106.28547 22616 ft 438 kts
2026-04-21 03:52 29.45252 106.29121 21916 ft 433 kts 12°
2026-04-21 03:52 29.48139 106.30070 21163 ft 430 kts 14°
2026-04-21 03:52 29.50983 106.31055 20623 ft 429 kts 14°
2026-04-21 03:53 29.53800 106.32028 20304 ft 420 kts 13°
2026-04-21 03:53 29.56633 106.32572 20188 ft 400 kts 356°
2026-04-21 03:53 29.59317 106.32101 20078 ft 381 kts 340°
2026-04-21 03:53 29.61750 106.31153 20075 ft 365 kts 337°
2026-04-21 03:54 29.64086 106.30164 20056 ft 350 kts 337°
2026-04-21 03:54 29.66341 106.29203 20015 ft 336 kts 337°
2026-04-21 03:54 29.68595 106.28537 19476 ft 343 kts 351°
2026-04-21 03:54 29.71034 106.28557 18600 ft 360 kts
2026-04-21 03:55 29.73465 106.29384 17657 ft 378 kts 23°
2026-04-21 03:55 29.75713 106.31085 16651 ft 398 kts 40°
2026-04-21 03:55 29.77457 106.33601 15661 ft 414 kts 60°
2026-04-21 03:55 29.78382 106.36725 15027 ft 417 kts 81°
2026-04-21 03:56 29.78369 106.40050 14331 ft 419 kts 101°
2026-04-21 03:56 29.77413 106.43149 13704 ft 416 kts 121°
2026-04-21 03:56 29.75623 106.45708 13129 ft 408 kts 141°
2026-04-21 03:56 29.73260 106.47416 12604 ft 399 kts 160°
2026-04-21 03:57 29.70599 106.48158 12098 ft 389 kts 178°
2026-04-21 03:57 29.67943 106.48051 11602 ft 382 kts 187°
2026-04-21 03:57 29.65312 106.47714 11121 ft 375 kts 188°
2026-04-21 03:57 29.62756 106.47367 10983 ft 358 kts 188°
2026-04-21 03:58 29.60352 106.47038 10914 ft 340 kts 190°
2026-04-21 03:58 29.58121 106.46472 10800 ft 323 kts 197°
2026-04-21 03:58 29.55991 106.45752 10689 ft 309 kts 198°
2026-04-21 03:58 29.53988 106.45057 10565 ft 296 kts 198°
2026-04-21 03:59 29.52059 106.44392 10466 ft 282 kts 199°
2026-04-21 03:59 29.50209 106.43757 10271 ft 273 kts 199°
2026-04-21 03:59 29.48420 106.43140 10176 ft 261 kts 198°
2026-04-21 04:00 29.45063 106.42025 9950 ft 243 kts 190°
2026-04-21 04:00 29.43401 106.42229 9829 ft 238 kts 159°
2026-04-21 04:00 29.42057 106.43297 9678 ft 246 kts 133°
2026-04-21 04:00 29.41169 106.45020 9275 ft 255 kts 115°
2026-04-21 04:01 29.40594 106.46943 8872 ft 260 kts 110°
2026-04-21 04:01 29.40070 106.48949 8486 ft 261 kts 109°
2026-04-21 04:01 29.39565 106.50943 8113 ft 262 kts 104°
2026-04-21 04:01 29.39597 106.53027 7751 ft 266 kts 74°
2026-04-21 04:02 29.40486 106.54823 7428 ft 264 kts 46°
2026-04-21 04:02 29.42000 106.55984 7006 ft 262 kts 21°
2026-04-21 04:02 29.43727 106.56654 6669 ft 259 kts 17°
2026-04-21 04:02 29.45456 106.57241 6304 ft 258 kts 16°
2026-04-21 04:03 29.47145 106.57806 6173 ft 246 kts 15°
2026-04-21 04:03 29.48768 106.58343 5896 ft 242 kts 15°
2026-04-21 04:03 29.50383 106.58884 5576 ft 239 kts 16°
2026-04-21 04:03 29.51965 106.59419 5296 ft 236 kts 16°
2026-04-21 04:04 29.53538 106.59956 4998 ft 233 kts 17°
2026-04-21 04:04 29.55079 106.60485 4687 ft 230 kts 17°
2026-04-21 04:04 29.56621 106.61018 4397 ft 227 kts 17°
2026-04-21 04:04 29.58118 106.61534 4103 ft 225 kts 18°
2026-04-21 04:05 29.59610 106.62052 3806 ft 223 kts 17°
2026-04-21 04:05 29.61083 106.62563 3512 ft 221 kts 17°
2026-04-21 04:05 29.62551 106.63071 3216 ft 218 kts 17°
2026-04-21 04:05 29.63963 106.63561 2925 ft 204 kts 17°
2026-04-21 04:06 29.65287 106.64020 2664 ft 193 kts 16°
2026-04-21 04:06 29.66542 106.64455 2404 ft 182 kts 15°
2026-04-21 04:06 29.67742 106.64872 2165 ft 175 kts 15°
2026-04-21 04:06 29.68854 106.65262 1941 ft 163 kts 15°
2026-04-21 04:07 29.69924 106.65630 1719 ft 160 kts 14°
2026-04-21 04:07 29.70990 106.65997 1484 ft 158 kts 14°
2026-04-21 04:07 29.72031 106.66362 1385 ft 149 kts 15°
2026-04-21 04:07 29.72918 106.66659 1377 ft 112 kts 18°
2026-04-21 04:08 29.73510 106.66863 1377 ft 63 kts 16°
2026-04-21 04:08 29.73898 106.67000 1377 ft 38 kts 18°
2026-04-21 04:08 29.74019 106.67004 1377 ft 11 kts 311°
2026-04-21 04:08 29.74046 106.66926 1377 ft 9 kts 285°
2026-04-21 04:09 29.74066 106.66853 1377 ft 10 kts 288°
2026-04-21 04:09 29.74094 106.66752 1377 ft 13 kts 287°
2026-04-21 04:09 29.74135 106.66688 1377 ft 9 kts 352°
2026-04-21 04:09 29.74199 106.66682 1377 ft 8 kts 326°
2026-04-21 04:10 29.74220 106.66628 1377 ft 6 kts 287°
2026-04-21 04:10 29.74226 106.66608 1377 ft 0 kts 287°